Time,TemperatureF,DewpointF,PressureIn,WindDirection,WindDirectionDegrees,WindSpeedMPH,WindSpeedGustMPH,Humidity,HourlyPrecipIn,Conditions,Clouds,dailyrainin,SoftwareType,DateUTC
2013-06-28 00:12:00,62.0,-99.9,-100.00,North,-999,-999.0,-999.0,-999,0.00,,,0.01,,2013-06-28 04:12:00,
2013-06-28 00:22:00,62.0,-99.9,-100.00,North,-999,-999.0,-999.0,-999,0.00,,,0.01,,2013-06-28 04:22:00,
2013-06-28 00:33:00,62.0,-99.9,-100.00,North,-999,-999.0,-999.0,-999,0.00,,,0.01,,2013-06-28 04:33:00,
2013-06-28 02:40:00,60.0,-99.9,-100.00,North,-999,-999.0,-999.0,-999,-99.99,,,0.23,,2013-06-28 06:40:00,
2013-06-28 03:33:00,60.0,-99.9,-100.00,North,-999,-999.0,-999.0,-999,-99.99,,,0.23,,2013-06-28 07:33:00,
2013-06-28 05:40:00,56.0,-99.9,-100.00,North,-999,-999.0,-999.0,-999,-99.99,,,0.80,,2013-06-28 09:40:00,
2013-06-28 06:02:00,56.0,-99.9,-100.00,North,-999,-999.0,-999.0,-999,-99.99,,,0.80,,2013-06-28 10:02:00,
2013-06-28 06:12:00,56.0,-99.9,-100.00,North,-999,-999.0,-999.0,-999,-99.99,,,0.80,,2013-06-28 10:12:00,
2013-06-28 06:22:00,56.0,-99.9,-100.00,North,-999,-999.0,-999.0,-999,-99.99,,,0.80,,2013-06-28 10:22:00,
2013-06-28 06:33:00,56.0,-99.9,-100.00,North,-999,-999.0,-999.0,-999,-99.99,,,0.80,,2013-06-28 10:33:00,
2013-06-28 06:40:00,56.0,-99.9,-100.00,North,-999,-999.0,-999.0,-999,0.00,,,0.83,,2013-06-28 10:40:00,
2013-06-28 07:02:00,56.0,-99.9,-100.00,North,-999,-999.0,-999.0,-999,0.00,,,0.83,,2013-06-28 11:02:00,
2013-06-28 07:11:00,56.0,-99.9,-100.00,North,-999,-999.0,-999.0,-999,0.00,,,0.83,,2013-06-28 11:11:00,
2013-06-28 07:22:00,56.0,-99.9,-100.00,North,-999,-999.0,-999.0,-999,0.00,,,0.83,,2013-06-28 11:22:00,
2013-06-28 07:34:00,56.0,-99.9,-100.00,North,-999,-999.0,-999.0,-999,0.00,,,0.83,,2013-06-28 11:34:00,
2013-06-28 07:40:00,56.0,-99.9,-100.00,North,-999,-999.0,-999.0,-999,0.00,,,0.89,,2013-06-28 11:40:00,
2013-06-28 08:02:00,56.0,-99.9,-100.00,North,-999,-999.0,-999.0,-999,0.00,,,0.89,,2013-06-28 12:02:00,
2013-06-28 08:12:00,56.0,-99.9,-100.00,North,-999,-999.0,-999.0,-999,0.00,,,0.89,,2013-06-28 12:12:00,
2013-06-28 08:22:00,56.0,-99.9,-100.00,North,-999,-999.0,-999.0,-999,0.00,,,0.89,,2013-06-28 12:22:00,
2013-06-28 08:34:00,56.0,-99.9,-100.00,North,-999,-999.0,-999.0,-999,0.00,,,0.89,,2013-06-28 12:34:00,
2013-06-28 08:40:00,57.0,-99.9,-100.00,North,-999,-999.0,-999.0,-999,0.00,,,0.95,,2013-06-28 12:40:00,
2013-06-28 09:02:00,57.0,-99.9,-100.00,North,-999,-999.0,-999.0,-999,0.00,,,0.95,,2013-06-28 13:02:00,
2013-06-28 09:11:00,57.0,-99.9,-100.00,North,-999,-999.0,-999.0,-999,0.00,,,0.95,,2013-06-28 13:11:00,
2013-06-28 09:23:00,57.0,-99.9,-100.00,North,-999,-999.0,-999.0,-999,0.00,,,0.95,,2013-06-28 13:23:00,
2013-06-28 09:33:00,57.0,-99.9,-100.00,North,-999,-999.0,-999.0,-999,0.00,,,0.95,,2013-06-28 13:33:00,
2013-06-28 11:40:00,60.0,-99.9,-100.00,North,-999,-999.0,-999.0,-999,-99.99,,,-99.99,,2013-06-28 15:40:00,
2013-06-28 12:02:00,60.0,-99.9,-100.00,North,-999,-999.0,-999.0,-999,-99.99,,,-99.99,,2013-06-28 16:02:00,
2013-06-28 12:11:00,60.0,-99.9,-100.00,North,-999,-999.0,-999.0,-999,-99.99,,,-99.99,,2013-06-28 16:11:00,
2013-06-28 12:25:00,60.0,-99.9,-100.00,North,-999,-999.0,-999.0,-999,-99.99,,,-99.99,,2013-06-28 16:25:00,
2013-06-28 12:33:00,60.0,-99.9,-100.00,North,-999,-999.0,-999.0,-999,-99.99,,,-99.99,,2013-06-28 16:33:00,
2013-06-28 12:40:00,62.0,-99.9,-100.00,North,-999,-999.0,-999.0,-999,0.00,,,-99.99,,2013-06-28 16:40:00,
2013-06-28 13:11:00,62.0,-99.9,-100.00,North,-999,-999.0,-999.0,-999,0.00,,,-99.99,,2013-06-28 17:11:00,
2013-06-28 13:22:00,62.0,-99.9,-100.00,North,-999,-999.0,-999.0,-999,0.00,,,-99.99,,2013-06-28 17:22:00,
2013-06-28 13:33:00,62.0,-99.9,-100.00,North,-999,-999.0,-999.0,-999,0.00,,,-99.99,,2013-06-28 17:33:00,
2013-06-28 13:40:00,63.0,-99.9,-100.00,North,-999,-999.0,-999.0,-999,0.00,,,1.10,,2013-06-28 17:40:00,
2013-06-28 14:02:00,63.0,-99.9,-100.00,North,-999,-999.0,-999.0,-999,0.00,,,1.10,,2013-06-28 18:02:00,
2013-06-28 14:12:00,63.0,-99.9,-100.00,North,-999,-999.0,-999.0,-999,0.00,,,1.10,,2013-06-28 18:12:00,
2013-06-28 14:22:00,63.0,-99.9,-100.00,North,-999,-999.0,-999.0,-999,0.00,,,1.10,,2013-06-28 18:22:00,
2013-06-28 14:33:00,63.0,-99.9,-100.00,North,-999,-999.0,-999.0,-999,0.00,,,1.10,,2013-06-28 18:33:00,
2013-06-28 14:40:00,64.0,-99.9,-100.00,North,-999,-999.0,-999.0,-999,-99.99,,,1.10,,2013-06-28 18:40:00,
2013-06-28 15:11:00,64.0,-99.9,-100.00,North,-999,-999.0,-999.0,-999,-99.99,,,1.10,,2013-06-28 19:11:00,
2013-06-28 15:22:00,64.0,-99.9,-100.00,North,-999,-999.0,-999.0,-999,-99.99,,,1.10,,2013-06-28 19:22:00,
2013-06-28 15:33:00,64.0,-99.9,-100.00,North,-999,-999.0,-999.0,-999,-99.99,,,1.10,,2013-06-28 19:33:00,
2013-06-28 16:40:00,64.0,-99.9,-100.00,North,-999,-999.0,-999.0,-999,-99.99,,,1.20,,2013-06-28 20:40:00,
2013-06-28 17:02:00,64.0,-99.9,-100.00,North,-999,-999.0,-999.0,-999,-99.99,,,1.20,,2013-06-28 21:02:00,
2013-06-28 17:11:00,64.0,-99.9,-100.00,North,-999,-999.0,-999.0,-999,-99.99,,,1.20,,2013-06-28 21:11:00,
2013-06-28 17:23:00,64.0,-99.9,-100.00,North,-999,-999.0,-999.0,-999,-99.99,,,1.20,,2013-06-28 21:23:00,
2013-06-28 17:34:00,64.0,-99.9,-100.00,North,-999,-999.0,-999.0,-999,-99.99,,,1.20,,2013-06-28 21:34:00,
2013-06-28 17:40:00,65.0,-99.9,-100.00,North,-999,-999.0,-999.0,-999,0.00,,,1.24,,2013-06-28 21:40:00,
2013-06-28 18:01:00,65.0,-99.9,-100.00,North,-999,-999.0,-999.0,-999,0.00,,,1.24,,2013-06-28 22:01:00,
2013-06-28 18:11:00,65.0,-99.9,-100.00,North,-999,-999.0,-999.0,-999,0.00,,,1.24,,2013-06-28 22:11:00,
2013-06-28 18:22:00,65.0,-99.9,-100.00,North,-999,-999.0,-999.0,-999,0.00,,,1.24,,2013-06-28 22:22:00,
2013-06-28 18:34:00,65.0,-99.9,-100.00,North,-999,-999.0,-999.0,-999,0.00,,,1.24,,2013-06-28 22:34:00,
2013-06-28 18:40:00,64.0,-99.9,-100.00,North,-999,-999.0,-999.0,-999,0.00,,,1.37,,2013-06-28 22:40:00,
2013-06-28 19:02:00,64.0,-99.9,-100.00,North,-999,-999.0,-999.0,-999,0.00,,,1.37,,2013-06-28 23:02:00,
2013-06-28 19:11:00,64.0,-99.9,-100.00,North,-999,-999.0,-999.0,-999,0.00,,,1.37,,2013-06-28 23:11:00,
2013-06-28 19:23:00,64.0,-99.9,-100.00,North,-999,-999.0,-999.0,-999,0.00,,,1.37,,2013-06-28 23:23:00,
2013-06-28 19:34:00,64.0,-99.9,-100.00,North,-999,-999.0,-999.0,-999,0.00,,,1.37,,2013-06-28 23:34:00,
2013-06-28 19:40:00,64.0,-99.9,-100.00,North,-999,-999.0,-999.0,-999,0.00,,,2.00,,2013-06-28 23:40:00,
2013-06-28 20:02:00,64.0,-99.9,-100.00,North,-999,-999.0,-999.0,-999,0.00,,,2.00,,2013-06-29 00:02:00,
2013-06-28 20:12:00,64.0,-99.9,-100.00,North,-999,-999.0,-999.0,-999,0.00,,,2.00,,2013-06-29 00:12:00,
2013-06-28 20:23:00,64.0,-99.9,-100.00,North,-999,-999.0,-999.0,-999,0.00,,,2.00,,2013-06-29 00:23:00,
2013-06-28 20:34:00,64.0,-99.9,-100.00,North,-999,-999.0,-999.0,-999,0.00,,,2.00,,2013-06-29 00:34:00,
2013-06-28 21:40:00,63.0,-99.9,-100.00,North,-999,-999.0,-999.0,-999,0.00,,,2.02,,2013-06-29 01:40:00,
2013-06-28 22:01:00,63.0,-99.9,-100.00,North,-999,-999.0,-999.0,-999,0.00,,,2.02,,2013-06-29 02:01:00,
2013-06-28 22:11:00,63.0,-99.9,-100.00,North,-999,-999.0,-999.0,-999,0.00,,,2.02,,2013-06-29 02:11:00,
2013-06-28 22:21:00,63.0,-99.9,-100.00,North,-999,-999.0,-999.0,-999,0.00,,,2.02,,2013-06-29 02:21:00,
2013-06-28 22:31:00,63.0,-99.9,-100.00,North,-999,-999.0,-999.0,-999,0.00,,,2.02,,2013-06-29 02:31:00,
2013-06-28 22:40:00,63.0,-99.9,-100.00,North,-999,-999.0,-999.0,-999,0.00,,,2.21,,2013-06-29 02:40:00,
2013-06-28 23:01:00,63.0,-99.9,-100.00,North,-999,-999.0,-999.0,-999,0.00,,,2.21,,2013-06-29 03:01:00,
2013-06-28 23:11:00,63.0,-99.9,-100.00,North,-999,-999.0,-999.0,-999,0.00,,,2.21,,2013-06-29 03:11:00,
2013-06-28 23:21:00,63.0,-99.9,-100.00,North,-999,-999.0,-999.0,-999,0.00,,,2.21,,2013-06-29 03:21:00,
2013-06-28 23:32:00,63.0,-99.9,-100.00,North,-999,-999.0,-999.0,-999,0.00,,,2.21,,2013-06-29 03:32:00,
2013-06-28 23:40:00,63.0,-99.9,-100.00,North,-999,-999.0,-999.0,-999,0.00,,,2.21,,2013-06-29 03:40:00,